Погода в Казачьем

Россия / Республика Саха (Якутия)     70°44′40″N   136°12′29″E
темп.,
°C
ветер,
м/с
пор.,
м/с
влажн.,
%
обл.,
%
осадки,
мм/ч
давл.,
гПа
погр.,
м
1 марта, пн
пн101:00−38с1110060 0.0 102619
04:00−39зсз1110059 0.0 102519
07:00−39зсз1110056 0.0 102519
10:00−38з119869 0.0 102519
13:00−35зсз119563 0.0 102519
16:00−36зсз119556 0.0 102419
19:00−39зсз1110037 0.0 102519
22:00−40зсз119927 0.0 102618
2 марта, вт
вт201:00−40зсз1110013 0.0 102618
04:00−40сз119915 0.0 102618
07:00−41сз019918 0.0 102718
10:00−39сз019632 0.0 102718
13:00−35з009497 0.0 1028103
16:00−36з009798 0.0 102819
19:00−39ю0010093 0.0 102919
22:00−39юз0110093 0.0 102918
3 марта, ср
ср301:00−40ссз0110088 0.0 102818
04:00−40з0010093 0.0 102818
07:00−40ссз1110098 0.0 102818
10:00−38ссз119999 0.0 102718
13:00−35ссз1297100 0.0 102680
16:00−36ссв1298100 0.0 102419
19:00−38св2299100 0.0 102419
22:00−38ссв2298100 0.0 102318
4 марта, чт
чт401:00−36с2398100 0.1 102379
04:00−34ссз2498100 0.1 1022138
07:00−32сз3498100 0.1 1022164
10:00−31ссз3498100 0.1 1021168
13:00−28сз3596100 0.1 1021318
16:00−26ссз5796100 0.2 1020413
19:00−27сз5997100 0.2 1021331
22:00−28сз61096100 0.3 1022334
5 марта, пт
пт501:00−30сз71093100 0.1 1022350
04:00−33зсз71194100 0.1 1022285
07:00−33зсз81294100 0.0 1023331
10:00−32зсз81295100 0.0 1023359
13:00−31зсз91395100 0.0 1023393
16:00−30зсз91394100 0.1 1023418
19:00−31зсз81393100 0.0 1024373
22:00−31зсз81293100 0.0 1025357